KD4PYR Weather Reports


time (UTC)temp
F
wind
direction
speed
knots
gust
knots
rain 1hr
in
rain 24hr
in
rain mn
in
humidity
%
barometer
mb
20260905041827 75 360 0.0 0.0 0.00 0.00 0.00 79 1015.7
20260905040822 75 360 0.0 0.0 0.00 0.00 0.00 79 1015.7
20260905035827 75 360 0.0 0.0 0.00 0.00 0.00 79 1015.8
20260905034831 75 360 0.0 0.0 0.00 0.00 0.00 79 1015.7
20260905033821 75 360 0.0 0.0 0.00 0.00 0.00 79 1015.6
20260905032838 75 360 0.0 0.0 0.00 0.00 0.00 79 1015.6
20260905031832 76 360 0.0 0.0 0.00 0.00 0.00 79 1015.7
20260905030824 76 360 0.0 0.0 0.00 0.00 0.00 79 1015.6
20260905025830 76 360 0.0 0.0 0.00 0.00 0.00 79 1015.6
20260905024858 76 360 0.0 0.0 0.00 0.00 0.00 78 1015.6
20260905023832 77 360 0.0 0.0 0.00 0.00 0.00 79 1015.6
20260905022851 77 360 0.0 0.0 0.00 0.00 0.00 78 1015.6
20260905021850 77 360 0.0 0.0 0.00 0.00 0.00 78 1015.6
20260905020820 77 360 0.0 0.0 0.00 0.00 0.00 78 1015.6
20260905015826 77 360 0.0 0.9 0.00 0.00 0.00 78 1015.5
20260905014829 77 360 0.0 1.7 0.00 0.00 0.00 78 1015.5
20260905013822 78 360 0.0 0.0 0.00 0.00 0.00 78 1015.4
20260905012840 78 360 0.0 0.0 0.00 0.00 0.00 78 1015.4
20260905011832 79 360 0.0 0.0 0.00 0.00 0.00 77 1015.4
20260905010824 79 360 0.0 0.0 0.00 0.00 0.00 77 1015.3
20260905005829 80 360 0.0 0.0 0.00 0.00 0.00 75 1015.3
20260905004829 81 360 0.0 0.0 0.00 0.00 0.00 74 1015.3
20260905003823 81 360 0.0 0.0 0.00 0.00 0.00 73 1015.1
20260905002900 82 360 0.0 0.0 0.00 0.00 0.00 72 1015.2
20260905001830 82 360 0.0 2.6 0.00 0.00 0.00 71 1015.0
20260905000820 82 360 0.9 2.6 0.00 0.00 0.00 72 1015.1
20260904235844 83 360 0.9 2.6 0.00 0.00 0.00 71 1015.0
20260904234827 83 360 0.0 1.7 0.00 0.00 0.00 70 1014.9
20260904233819 84 360 0.0 1.7 0.00 0.00 0.00 68 1014.9
20260904232838 84 360 0.0 0.0 0.00 0.00 0.00 69 1014.7
20260904231836 85 360 0.0 0.0 0.00 0.00 0.00 68 1014.6
20260904230827 85 360 0.0 2.6 0.00 0.00 0.00 65 1014.5
20260904225832 84 360 0.0 1.7 0.00 0.00 0.00 67 1014.4
20260904224834 84 360 0.9 2.6 0.00 0.00 0.00 67 1014.4
20260904223826 84 360 0.9 2.6 0.00 0.00 0.00 68 1014.6
20260904222818 84 360 1.7 1.7 0.00 0.00 0.00 67 1014.8
20260904221837 84 360 0.0 3.5 0.00 0.00 0.00 67 1015.1
20260904220832 84 338 0.9 3.5 0.00 0.00 0.00 68 1015.9
20260904215815 85 13 5.2 13.0 0.00 0.00 0.00 65 1016.8
20260904214854 87 5 4.3 15.6 0.00 0.00 0.00 56 1017.1
20260904213829 92 281 5.2 19.1 0.00 0.00 0.00 50 1016.8
20260904212819 96 347 0.9 3.5 0.00 0.00 0.00 50 1015.8
20260904211838 96 339 0.9 4.3 0.00 0.00 0.00 49 1015.5
20260904210829 97 332 0.9 5.2 0.00 0.00 0.00 50 1015.2
20260904205853 96 317 0.9 7.0 0.00 0.00 0.00 49 1015.2
20260904204835 96 334 1.7 5.2 0.00 0.00 0.00 48 1015.4
20260904203826 96 302 2.6 7.0 0.00 0.00 0.00 49 1015.4
20260904202846 96 329 3.5 8.7 0.00 0.00 0.00 50 1015.5
20260904201840 96 296 3.5 7.8 0.00 0.00 0.00 49 1015.7
20260904200831 96 312 1.7 7.0 0.00 0.00 0.00 50 1015.8
20260904195815 96 315 1.7 7.0 0.00 0.00 0.00 49 1015.7
20260904194837 96 186 1.7 7.8 0.00 0.00 0.00 49 1015.8
20260904193831 96 302 3.5 9.6 0.00 0.00 0.00 48 1015.8
20260904192822 97 295 3.5 8.7 0.00 0.00 0.00 47 1016.0
20260904191814 97 285 4.3 9.6 0.00 0.00 0.00 49 1016.0
20260904190830 97 290 1.7 10.4 0.00 0.00 0.00 49 1016.3
20260904185815 97 341 2.6 7.8 0.00 0.00 0.00 47 1016.3
20260904184818 96 304 2.6 8.7 0.00 0.00 0.00 51 1016.5
20260904183837 96 304 5.2 11.3 0.00 0.00 0.00 49 1016.6
20260904182830 98 296 2.6 7.8 0.00 0.00 0.00 49 1016.7
20260904181821 97 299 2.6 7.0 0.00 0.00 0.00 49 1016.7
20260904180839 96 285 2.6 13.0 0.00 0.00 0.00 50 1016.9
20260904175841 96 292 3.5 7.8 0.00 0.00 0.00 50 1017.1
20260904174824 96 325 4.3 9.6 0.00 0.00 0.00 50 1017.4
20260904173843 96 321 1.7 7.8 0.00 0.00 0.00 51 1017.5
20260904172814 95 213 1.7 7.0 0.00 0.00 0.00 51 1017.6
20260904171852 94 206 4.3 12.2 0.00 0.00 0.00 52 1017.6
20260904170820 94 328 3.5 11.3 0.00 0.00 0.00 54 1017.7
20260904165843 93 293 1.7 10.4 0.00 0.00 0.00 54 1017.8
20260904164823 94 313 3.5 12.2 0.00 0.00 0.00 55 1017.8
20260904163840 93 304 5.2 11.3 0.00 0.00 0.00 55 1017.9
20260904162832 93 288 5.2 10.4 0.00 0.00 0.00 55 1017.8
20260904161824 93 307 2.6 8.7 0.00 0.00 0.00 56 1017.7
20260904160814 92 298 1.7 7.0 0.00 0.00 0.00 57 1017.7
20260904155820 91 315 0.9 4.3 0.00 0.00 0.00 59 1017.9
20260904154825 91 313 7.0 10.4 0.00 0.00 0.00 59 1017.9
20260904153815 90 304 0.9 7.8 0.00 0.00 0.00 60 1017.8
20260904152855 90 311 3.5 7.0 0.00 0.00 0.00 61 1017.7
20260904151826 89 307 2.6 7.0 0.00 0.00 0.00 63 1017.8
20260904150841 89 151 0.0 2.6 0.00 0.00 0.00 65 1017.8
20260904145825 88 294 1.7 7.0 0.00 0.00 0.00 65 1017.7
20260904144827 87 298 0.0 3.5 0.00 0.00 0.00 67 1017.6
20260904143823 87 292 0.0 4.3 0.00 0.00 0.00 67 1017.7
20260904142815 86 159 1.7 4.3 0.00 0.00 0.00 69 1017.6
20260904141835 85 190 0.0 2.6 0.00 0.00 0.00 70 1017.6
20260904140826 84 296 0.9 6.1 0.00 0.00 0.00 72 1017.6
20260904135829 83 282 0.0 1.7 0.00 0.00 0.00 74 1017.7
20260904134831 83 288 0.0 2.6 0.00 0.00 0.00 74 1017.6
20260904133823 82 183 0.0 0.0 0.00 0.00 0.00 75 1017.7
20260904132816 81 159 0.0 0.0 0.00 0.00 0.00 76 1017.9
20260904131834 81 160 0.0 0.0 0.00 0.00 0.00 77 1018.0
20260904130824 80 160 0.0 0.0 0.00 0.00 0.00 77 1017.9
20260904125831 80 160 0.0 0.0 0.00 0.00 0.00 78 1017.8
20260904124835 79 160 0.0 0.0 0.00 0.00 0.00 78 1017.8
20260904123827 79 159 0.0 0.0 0.00 0.00 0.00 78 1017.7
20260904122821 78 159 0.0 0.0 0.00 0.00 0.00 78 1017.5
20260904121839 78 159 0.0 0.0 0.00 0.00 0.00 79 1017.5
20260904120830 77 159 0.0 0.0 0.00 0.00 0.00 79 1017.4
20260904115815 76 158 0.0 0.0 0.00 0.00 0.00 80 1017.1
20260904114847 76 158 0.0 1.7 0.00 0.00 0.00 80 1017.0
20260904113818 76 158 0.9 1.7 0.00 0.00 0.00 80 1017.0
20260904112900 76 158 0.0 0.9 0.00 0.00 0.00 81 1016.9
20260904111832 75 158 0.0 1.7 0.00 0.00 0.00 81 1017.0
20260904110822 75 158 0.0 1.7 0.00 0.00 0.00 81 1016.7
20260904105826 76 158 0.0 0.0 0.00 0.00 0.00 81 1016.6
20260904104830 76 158 0.0 0.0 0.00 0.00 0.00 81 1016.7
20260904103820 76 158 0.0 0.9 0.00 0.00 0.00 81 1016.7
20260904102839 76 158 0.0 1.7 0.00 0.00 0.00 81 1016.6
20260904101833 75 158 0.0 1.7 0.00 0.00 0.00 81 1016.6
20260904100826 75 158 0.0 0.0 0.00 0.00 0.00 82 1016.6
20260904095833 75 158 0.0 0.9 0.00 0.00 0.00 81 1016.5
20260904094816 75 158 0.0 1.7 0.00 0.00 0.00 81 1016.5
20260904093835 75 158 0.0 0.0 0.00 0.00 0.00 81 1016.5
20260904092827 75 158 0.0 0.9 0.00 0.00 0.00 81 1016.5
20260904091846 75 158 0.0 0.9 0.00 0.00 0.00 81 1016.5
20260904090815 75 158 0.0 0.0 0.00 0.00 0.00 81 1016.5
20260904085817 75 158 0.0 0.0 0.00 0.00 0.00 81 1016.6
20260904084822 76 158 0.0 0.0 0.00 0.00 0.00 81 1016.5
20260904083815 76 158 0.0 0.0 0.00 0.00 0.00 81 1016.6
20260904082834 76 158 0.0 0.9 0.00 0.00 0.00 81 1016.5
20260904081826 76 158 0.0 0.0 0.00 0.00 0.00 81 1016.5
20260904080816 76 158 0.0 0.0 0.00 0.00 0.00 81 1016.6
20260904075841 76 158 0.0 0.0 0.00 0.00 0.00 81 1016.5
20260904074928 76 158 0.0 0.0 0.00 0.00 0.00 81 1016.5
20260904073830 76 158 0.0 0.0 0.00 0.00 0.00 80 1016.6
20260904072822 76 158 0.0 0.0 0.00 0.00 0.00 80 1016.7
20260904071839 77 158 0.0 0.0 0.00 0.00 0.00 80 1016.7
20260904070830 77 158 0.0 0.0 0.00 0.00 0.00 79 1016.7
20260904065816 77 158 0.0 0.0 0.00 0.00 0.00 80 1016.7
20260904064840 77 158 0.0 0.0 0.00 0.00 0.00 79 1016.8
20260904063832 77 158 0.0 0.0 0.00 0.00 0.00 79 1016.8
20260904062852 77 158 0.0 0.0 0.00 0.00 0.00 79 1016.9
20260904061824 78 158 0.0 1.7 0.00 0.00 0.00 79 1016.9
20260904060815 78 158 0.0 1.7 0.00 0.00 0.00 78 1017.0
20260904055819 78 158 0.0 1.7 0.00 0.00 0.00 78 1017.1
20260904054823 77 158 0.9 1.7 0.00 0.00 0.00 79 1017.0
20260904053814 78 158 0.0 0.9 0.00 0.00 0.00 79 1017.0
20260904052832 78 158 0.0 0.9 0.00 0.00 0.00 79 1017.1
20260904051822 78 158 0.0 0.9 0.00 0.00 0.00 79 1017.2
20260904050814 78 158 0.0 0.9 0.00 0.00 0.00 79 1017.2
20260904045817 78 158 0.0 0.0 0.00 0.00 0.00 79 1017.2
20260904044821 78 158 0.0 0.0 0.00 0.00 0.00 79 1017.1
20260904043839 79 158 0.0 0.0 0.00 0.00 0.00 78 1017.2
20260904042830 79 158 0.0 0.0 0.00 0.00 0.00 78 1017.2